Wind_Speed
21 22 23 24 24 25 25 26 27 27 27 27 27 26 24 24 24 25 26 26 26 28 30 31 32 33 34 36 33 26 20 18 17 14 12 10 10 11 13 15 17 19 21 21 21 23 26 26 24 23 23 26 32 32 29 28 29 29 28 29 31 32 31 31 33 34 34 33 31 29 28 27 24 22 21 21 21 21 20 20 21 21 22 22 22
23 23 24 24 25 26 26 27 27 27 28 28 28 26 25 25 25 26 26 26 26 26 28 29 30 32 32 33 33 29 22 18 17 16 13 11 10 10 12 14 16 19 20 21 21 22 25 27 28 28 26 28 31 31 28 28 30 31 31 30 32 33 33 34 35 35 33 32 31 31 29 26 23 22 21 21 22 22 21 21 23 23 24 24 24
24 24 25 25 26 27 27 28 28 28 28 28 28 27 26 26 26 26 26 26 25 25 27 28 29 30 31 31 31 31 26 20 17 16 14 11 10 10 11 12 15 17 18 20 22 24 24 21 21 26 27 25 24 25 25 26 28 31 32 32 33 34 34 33 32 32 31 30 29 29 27 25 23 22 21 20 22 24 23 23 25 26 25 25 25
25 25 26 26 27 28 28 29 29 29 29 29 28 27 27 26 27 27 27 26 26 25 26 27 29 30 31 31 31 31 29 24 19 17 15 12 11 11 12 13 14 15 17 18 21 23 24 21 17 17 20 24 25 25 25 26 29 31 33 34 33 32 32 31 29 30 30 28 29 29 27 25 23 22 22 22 24 26 25 24 26 27 26 26 26
26 26 27 27 28 29 29 30 30 29 29 29 28 28 27 27 27 28 27 27 26 26 26 27 29 29 30 31 30 29 29 27 22 19 16 14 13 12 13 14 15 16 16 16 18 19 20 20 18 16 17 20 23 27 29 31 33 32 32 33 31 30 30 29 28 29 28 27 28 28 25 24 23 23 24 25 25 25 25 25 26 27 27 27 27
27 28 28 29 29 30 31 31 31 30 30 29 28 28 28 27 28 28 28 27 27 27 27 27 28 29 30 30 29 28 28 27 24 21 18 16 14 13 13 14 15 16 16 16 17 17 15 15 15 15 16 17 20 26 29 30 30 28 28 29 28 26 27 28 28 28 28 28 27 25 23 24 25 25 24 24 24 26 27 27 26 27 28 29 29
28 29 29 30 30 31 32 32 32 31 30 29 29 28 28 28 28 28 28 28 27 28 28 27 28 28 29 29 28 27 26 25 24 22 20 18 16 15 14 14 15 16 17 17 18 16 14 13 13 14 15 16 19 24 24 23 24 24 23 23 23 24 25 26 27 28 28 28 27 25 25 25 26 25 23 23 26 27 27 27 28 30 30 30 29
29 30 30 31 31 32 32 33 32 32 31 30 29 29 29 29 29 29 28 28 28 28 29 28 28 28 28 28 28 27 26 25 24 22 21 19 17 15 15 16 16 16 16 17 18 17 15 15 15 15 16 17 19 21 22 21 22 22 21 21 23 24 24 25 26 27 27 27 27 27 27 26 25 25 25 26 27 27 27 28 31 32 31 29 28
30 31 31 32 32 33 33 33 33 32 31 30 29 29 29 30 29 29 29 28 28 28 29 29 28 28 28 27 27 27 26 25 24 22 21 19 17 16 15 16 17 16 16 15 15 16 16 16 16 16 17 17 18 19 20 21 22 22 22 23 24 23 24 25 26 27 27 27 27 27 28 28 27 26 26 26 26 27 28 30 31 31 30 28 27
31 31 32 32 32 33 33 33 32 31 31 30 30 30 30 31 30 30 29 29 29 29 29 30 29 29 28 27 27 26 25 24 23 22 21 19 18 16 15 15 16 17 17 16 15 14 15 15 16 17 18 18 18 18 19 20 22 22 23 24 25 24 23 24 26 27 27 27 27 28 28 27 26 25 25 26 27 28 30 30 30 31 30 28 28
32 32 32 32 33 33 33 33 32 31 31 31 31 31 31 31 31 30 30 30 30 30 30 30 30 30 29 29 28 27 26 25 23 22 21 20 19 17 16 15 15 15 16 17 17 16 15 14 15 17 18 18 19 19 20 20 21 22 23 23 24 24 23 24 27 29 27 26 26 25 25 25 26 26 26 27 28 28 29 30 31 32 31 30 29
32 32 32 33 33 33 32 32 31 31 30 30 30 31 31 31 31 31 31 32 32 32 32 32 31 31 29 28 28 28 27 26 25 24 22 21 20 19 18 16 15 14 15 16 18 18 17 15 15 18 20 21 22 22 22 21 22 24 25 25 26 26 24 25 28 28 26 26 26 24 24 25 27 27 27 29 28 28 29 32 33 33 32 31 30
31 32 32 32 32 31 31 30 30 29 29 29 30 30 31 31 32 32 32 33 33 34 34 34 33 32 31 29 27 27 26 26 25 25 24 22 22 21 20 18 17 15 14 15 17 19 19 18 17 19 21 23 24 25 23 22 23 25 26 27 28 28 27 27 27 25 26 27 26 25 25 26 27 26 26 28 29 28 29 31 32 32 31 30 30
31 31 31 30 30 30 29 29 28 28 28 29 29 30 31 32 32 33 33 34 34 35 35 35 34 33 32 30 28 27 26 25 24 24 24 23 22 21 21 20 19 17 15 15 16 18 21 22 21 20 22 24 25 26 26 25 25 26 26 25 26 27 28 29 28 26 26 27 26 25 25 24 25 24 25 26 28 28 28 30 31 31 30 29 30
30 29 29 29 28 28 28 28 28 28 29 29 30 30 31 32 32 33 33 34 34 34 35 35 34 33 32 31 29 27 26 25 23 23 23 23 22 21 21 21 20 19 18 16 16 17 20 23 23 21 22 24 25 26 27 26 25 26 25 24 25 26 27 28 27 27 28 28 27 26 26 25 25 26 27 28 28 29 29 30 31 30 28 28 30
28 28 28 28 28 28 28 28 28 29 29 29 30 30 31 31 32 32 33 33 33 33 33 33 33 33 32 30 29 28 27 26 24 22 22 22 22 22 22 21 21 20 20 19 18 17 18 20 22 21 22 23 24 26 27 26 25 25 25 25 25 25 26 27 27 28 30 30 29 27 27 28 28 28 29 29 29 30 28 28 31 31 28 27 29
28 28 28 28 28 28 28 28 29 29 29 29 29 30 30 31 31 32 32 33 33 33 33 32 32 32 31 30 29 29 28 27 26 24 23 22 23 23 23 23 22 22 22 21 20 19 18 18 20 21 22 23 24 26 28 27 27 27 27 28 28 26 24 24 26 28 29 30 31 32 33 33 32 32 33 32 32 32 30 28 30 31 31 32 32
29 29 29 29 29 29 29 29 29 29 30 30 30 30 31 32 32 33 33 34 34 34 33 33 32 32 31 31 31 30 30 29 28 27 25 24 24 24 24 25 25 24 24 24 23 23 22 20 20 21 22 22 23 26 28 29 29 28 28 30 31 30 27 25 24 26 27 27 28 30 33 35 35 36 38 38 37 37 38 36 33 31 32 34 36
29 29 29 29 29 28 28 29 29 30 30 31 31 32 33 33 34 34 35 35 35 35 34 33 32 32 32 32 32 32 31 30 29 28 27 26 26 26 26 27 27 27 27 27 27 27 26 25 24 24 24 24 23 24 27 29 30 30 30 30 30 30 30 30 29 28 27 27 26 27 29 32 34 36 38 39 39 39 42 44 42 38 36 38 39
29 28 28 27 27 27 28 28 29 29 30 31 32 33 34 34 35 35 36 36 36 35 35 34 33 33 33 33 32 32 31 30 29 29 28 27 27 27 28 28 29 29 29 29 29 29 30 30 29 28 27 27 26 26 26 28 30 31 33 33 30 28 28 30 31 31 29 29 29 29 29 30 32 34 35 36 37 37 38 41 42 42 42 43 42
27 27 27 27 27 27 28 28 29 30 31 32 33 34 34 34 35 35 35 35 35 35 35 35 35 34 34 33 33 32 31 31 30 29 29 28 27 27 28 29 30 31 31 31 31 31 32 32 32 32 31 30 30 30 29 30 30 31 34 36 35 32 31 31 32 33 32 31 31 31 32 33 34 35 36 37 38 39 40 41 42 43 43 42 39
27 27 28 28 28 29 29 30 31 32 32 33 33 33 34 34 34 34 34 34 34 34 34 34 34 34 34 34 34 33 33 32 31 31 30 29 29 28 28 29 30 32 33 33 33 34 34 34 34 35 34 33 33 33 33 33 33 33 34 36 36 35 35 35 35 35 34 32 32 34 35 37 37 37 38 40 42 43 44 44 43 42 40 38 37
27 27 28 28 29 29 29 30 31 31 31 31 31 32 32 32 32 33 33 33 33 33 33 34 34 34 34 34 34 34 34 34 33 33 32 31 30 30 29 29 30 31 33 34 35 35 35 36 36 37 37 37 37 36 36 36 36 36 36 37 38 38 38 39 39 38 37 35 35 36 38 38 38 37 37 38 41 43 44 44 43 41 39 39 40
27 27 28 28 28 27 27 27 28 28 29 29 30 30 31 31 32 32 32 33 33 33 34 34 34 34 34 34 34 34 34 34 33 33 32 31 31 31 30 30 31 31 33 34 35 36 37 37 37 38 39 39 40 40 40 39 39 39 39 39 39 41 42 43 43 43 41 40 39 40 41 42 41 39 38 37 40 43 44 44 43 42 43 43 44
28 28 28 27 26 26 25 26 26 27 27 28 29 30 31 31 32 32 33 33 33 33 34 34 34 34 34 33 33 33 33 32 32 31 31 30 30 30 30 31 32 32 33 35 36 37 38 39 39 39 40 41 42 42 43 43 42 42 42 42 42 42 44 46 48 48 47 44 42 42 44 46 46 45 43 41 41 43 43 44 45 45 46 46 46
28 28 27 26 25 25 25 25 26 26 27 28 29 30 31 31 32 32 32 32 32 32 32 32 32 32 31 31 31 31 30 30 29 29 28 28 28 28 29 30 31 32 33 35 37 39 40 41 41 41 41 42 43 44 45 45 45 45 45 45 45 45 45 46 48 50 50 48 45 44 45 47 47 46 44 43 44 45 45 46 48 48 48 48 48
27 26 25 24 24 24 25 25 26 27 28 29 29 29 29 29 29 29 29 29 29 29 29 28 28 28 27 26 26 25 25 24 24 24 23 23 23 24 24 26 27 29 31 33 35 38 40 42 44 44 44 44 45 46 46 47 48 48 48 48 48 48 49 49 48 49 51 51 49 48 48 48 48 47 46 45 46 48 48 49 49 49 49 50 50
25 23 23 23 24 24 25 26 26 26 26 26 26 26 26 26 26 26 26 26 25 25 24 24 23 22 22 21 21 21 21 21 21 21 20 20 20 20 21 22 23 24 26 28 31 33 36 40 42 45 46 47 48 48 49 49 49 50 50 50 51 51 52 52 52 51 51 52 53 53 53 53 53 52 51 50 50 51 51 51 51 51 52 52 50
23 23 23 24 24 25 24 24 24 23 23 23 23 23 23 23 23 22 21 21 20 20 19 19 19 19 19 19 20 20 20 20 20 20 20 20 20 20 20 21 22 23 24 25 27 28 31 33 37 40 43 46 48 50 51 52 52 52 52 51 52 52 53 54 55 55 54 54 54 54 55 55 55 54 53 52 53 54 54 52 52 51 51 50 49
23 23 23 23 23 22 21 21 21 21 21 21 21 20 19 18 18 17 16 16 17 17 17 18 18 18 19 19 19 19 19 19 20 20 20 20 21 21 21 22 23 24 25 26 27 27 28 29 31 34 37 41 44 47 49 51 53 54 55 55 54 53 53 53 55 56 57 57 56 55 55 55 54 53 52 51 51 51 51 51 50 49 49 48 47
22 22 21 20 19 18 18 18 18 18 18 18 17 15 14 13 13 14 14 15 16 16 17 17 18 18 18 18 18 18 19 20 21 21 22 22 22 23 23 23 24 25 26 27 28 29 30 30 30 29 31 34 38 41 44 47 49 51 53 55 56 56 56 55 55 56 57 58 58 57 56 55 54 52 50 49 49 48 48 48 48 48 48 48 47
19 18 17 17 16 16 16 16 15 15 14 13 12 11 11 12 13 13 14 15 16 16 16 17 17 18 18 18 18 19 20 21 22 23 23 24 24 25 25 25 25 25 26 28 29 31 33 34 34 32 30 30 31 34 37 40 42 44 47 49 52 55 57 57 57 57 57 57 57 57 57 57 57 57 55 53 52 50 49 48 48 48 48 47 47
15 15 14 14 14 14 13 12 11 10 10 9 9 10 11 12 13 13 14 15 16 16 17 17 18 18 18 19 19 19 20 21 22 23 24 24 25 26 26 26 27 27 28 29 30 31 33 35 37 37 35 32 30 30 32 33 35 37 39 41 43 46 49 52 54 55 56 57 57 57 56 55 56 57 58 59 58 56 53 51 50 50 50 50 49
13 12 12 12 11 10 9 8 8 8 8 8 9 10 11 12 13 14 15 16 17 17 18 18 18 19 19 20 20 20 21 22 23 24 25 25 25 26 26 27 28 29 29 29 30 31 33 34 36 38 38 36 32 30 29 30 31 33 34 35 36 37 40 42 45 47 50 52 54 55 56 56 54 53 52 53 54 54 54 53 51 50 50 51 52
11 10 10 9 8 7 7 6 7 8 9 10 11 12 13 15 16 17 18 18 19 19 19 19 19 19 19 20 20 21 22 23 25 26 26 26 26 27 27 28 29 29 30 30 31 32 33 34 35 37 39 39 36 32 29 29 29 30 31 32 33 34 34 35 37 39 41 43 45 48 50 52 53 52 51 49 47 45 45 46 46 46 46 47 48
9 8 8 7 7 6 6 6 7 9 10 12 13 14 16 17 18 19 20 20 20 20 20 20 19 19 19 20 20 21 22 24 25 26 26 27 27 28 28 28 29 29 30 30 31 32 33 34 35 37 39 40 39 35 31 29 29 29 30 30 31 31 32 32 33 33 34 36 37 39 41 43 45 48 49 49 47 45 42 40 39 40 41 42 43
9 8 8 7 6 6 6 8 9 10 12 14 16 17 18 19 20 20 20 20 20 20 19 19 19 18 19 20 20 21 22 23 24 25 26 27 28 28 28 28 29 30 30 31 31 32 33 34 35 36 37 39 40 39 36 32 31 30 30 30 29 29 30 30 30 30 30 30 30 31 32 34 36 38 40 42 44 45 44 42 40 38 37 38 39
10 9 8 7 7 7 8 10 12 13 15 17 18 19 20 19 19 19 19 19 19 19 18 18 18 18 18 19 19 20 21 23 24 25 26 27 28 28 28 29 29 30 30 31 31 32 33 34 35 36 37 38 40 41 39 36 34 32 32 31 30 29 29 28 28 27 26 26 26 26 26 27 28 30 32 34 35 37 39 40 40 39 36 34 34
10 9 8 8 8 9 11 12 14 16 17 18 19 19 19 19 19 19 19 18 18 18 17 17 17 17 18 18 19 20 21 23 24 25 26 27 28 28 29 29 29 30 30 31 31 32 32 33 34 35 36 37 39 40 41 39 37 35 34 34 33 31 29 28 26 25 23 23 22 22 22 22 23 24 25 26 28 29 30 31 33 34 34 34 33
10 9 9 9 10 11 13 15 16 17 18 18 18 18 19 19 19 18 18 18 17 16 16 16 16 17 18 18 19 20 22 23 24 25 26 27 28 29 29 30 30 30 30 31 31 31 32 33 34 35 36 36 38 39 40 40 39 37 35 35 35 33 31 28 26 24 22 21 20 20 20 20 20 20 20 21 23 25 25 26 26 27 28 29 30
10 9 10 10 12 13 15 16 17 18 18 18 18 19 18 18 18 18 17 17 16 15 14 15 15 17 18 18 19 21 22 23 24 25 26 27 28 28 29 29 30 30 30 30 31 31 32 33 34 35 35 36 36 38 39 40 40 38 36 35 35 35 33 30 26 24 22 20 20 20 20 19 19 19 18 19 20 21 22 22 22 21 21 22 23
10 10 11 12 14 15 16 17 17 17 18 18 19 19 19 18 17 17 16 15 14 14 14 14 15 16 17 18 19 21 22 23 25 26 26 27 28 28 29 29 29 30 30 30 30 30 31 32 33 34 35 35 35 36 38 39 40 39 37 36 35 35 34 31 28 25 22 21 20 20 19 19 18 18 18 17 18 19 19 20 19 18 18 18 18
11 11 12 14 15 15 16 16 17 17 18 18 18 18 18 17 16 15 14 13 13 13 14 14 15 16 17 18 20 21 23 24 25 26 27 28 28 29 29 29 30 30 30 31 31 30 30 30 31 33 34 34 35 35 36 37 38 39 38 36 35 34 34 32 29 26 24 22 21 20 19 19 18 17 17 17 17 17 17 18 18 18 17 16 16
11 12 13 14 14 15 16 16 17 18 18 18 17 16 16 15 14 13 13 12 12 13 14 14 15 17 18 20 21 23 24 25 26 27 27 28 29 29 30 30 30 31 31 31 31 31 30 30 31 32 33 33 34 34 34 35 36 37 38 37 35 34 34 32 30 27 25 23 22 21 20 19 18 17 16 16 16 16 17 17 18 18 18 17 16
12 12 13 13 14 14 16 17 17 18 18 17 16 15 15 14 13 12 12 12 12 13 14 15 17 18 19 20 21 22 24 25 26 27 28 28 29 30 30 31 31 31 31 31 31 30 30 29 30 31 32 33 33 33 34 34 34 35 36 37 36 34 33 32 31 29 26 24 22 21 21 20 19 17 16 15 15 16 17 17 17 17 18 18 18
11 11 12 13 13 14 16 17 17 17 17 16 16 15 14 14 13 12 12 13 13 14 15 16 17 18 19 20 21 22 23 25 26 27 28 28 29 29 30 31 31 31 31 31 31 31 30 29 29 30 31 32 33 33 33 33 33 34 34 35 35 35 34 32 31 30 27 24 22 21 21 20 19 19 17 16 16 16 16 17 17 17 17 18 18
10 10 12 13 13 15 16 16 17 16 16 15 15 15 14 14 13 13 13 14 14 15 16 17 18 19 20 21 22 24 25 26 27 28 28 29 29 29 29 30 31 31 31 31 31 31 31 30 29 28 29 30 32 32 32 33 33 33 33 33 34 34 34 33 31 31 29 27 24 22 20 20 19 19 18 18 17 16 16 16 17 18 18 18 19
8 10 11 13 14 15 16 16 16 16 15 15 15 15 14 14 14 14 15 15 16 16 17 18 18 20 21 23 24 26 27 28 28 29 29 29 29 29 30 30 30 31 31 31 31 31 31 31 30 29 29 29 30 31 32 32 32 32 32 32 32 33 33 33 32 31 30 28 26 24 21 20 19 19 18 18 18 17 17 16 17 18 18 19 19
7 9 10 12 13 14 15 16 16 16 16 15 15 15 15 15 15 16 16 17 17 18 19 20 20 21 23 24 26 27 28 28 29 29 28 28 29 29 30 30 30 30 30 31 31 31 31 31 31 30 29 29 29 30 31 31 32 32 32 31 31 31 32 32 32 31 30 29 28 26 24 22 20 19 18 18 18 18 17 17 18 18 19 19 20
8 9 10 11 12 13 14 14 15 16 16 16 16 16 16 16 16 16 17 18 19 20 21 22 23 24 25 27 28 28 28 28 28 28 28 28 28 29 29 29 29 29 29 30 30 30 30 30 31 31 30 30 29 29 30 30 31 32 32 31 31 31 31 31 31 31 30 30 29 27 26 24 22 20 19 19 18 18 18 18 18 19 19 19 20
9 9 10 11 12 13 14 14 14 14 15 15 16 16 17 17 18 18 18 19 20 21 23 24 25 26 28 28 29 29 29 28 28 27 28 28 28 29 29 29 29 29 29 29 29 30 30 30 30 30 30 30 30 29 29 29 30 31 31 31 31 31 30 30 30 30 30 29 29 28 27 26 24 21 20 19 19 18 18 18 18 19 20 20 20
Wind_Direction
285 283 283 284 286 288 290 291 293 295 297 301 304 309 315 319 322 324 327 331 333 334 337 340 343 346 348 351 350 343 332 330 329 320 313 308 296 279 264 256 252 251 250 252 253 252 250 247 245 248 250 249 247 238 228 227 231 234 238 243 245 238 227 222 222 222 222 221 218 216 219 224 225 226 230 234 236 238 235 234 238 241 243 245 246
284 284 285 287 288 289 290 291 292 294 296 299 302 308 314 318 321 323 325 329 332 334 336 340 344 348 349 350 352 349 339 331 330 326 317 308 298 285 271 263 260 259 259 260 260 263 266 256 240 236 242 245 240 231 226 226 226 231 238 239 237 230 221 220 220 218 218 217 217 217 220 225 225 225 229 233 238 239 234 235 240 243 243 245 245
285 287 288 290 290 290 290 291 291 293 295 298 301 306 313 317 319 322 324 327 330 332 334 337 342 346 348 350 351 352 349 338 329 329 328 312 292 284 278 272 271 273 272 270 266 271 282 278 248 235 243 252 244 230 226 227 228 234 236 233 228 222 216 216 217 218 218 217 218 220 221 224 224 225 230 236 240 241 238 237 241 243 244 244 244
287 290 291 292 292 291 291 290 291 293 295 297 300 305 312 317 319 320 322 324 327 330 332 334 338 342 346 349 350 352 353 350 340 333 332 320 298 287 284 279 277 279 279 278 277 277 282 285 273 256 257 259 250 236 231 231 232 231 227 226 224 217 212 211 215 220 221 219 221 222 221 224 224 226 231 234 237 240 241 240 241 244 244 243 244
287 291 292 293 293 292 291 291 291 292 293 296 299 305 311 316 318 319 320 322 324 328 330 333 336 340 344 348 350 350 351 353 349 340 332 324 312 299 292 288 283 279 278 278 279 282 282 280 275 271 270 265 250 237 232 234 235 230 224 223 223 217 215 213 215 222 225 223 225 227 230 232 230 229 231 232 234 238 242 245 245 245 245 243 245
289 292 294 294 293 292 291 290 290 291 292 295 299 305 311 315 317 318 319 320 322 325 329 331 334 339 343 346 348 349 349 351 352 347 338 329 319 308 301 298 292 282 278 275 272 271 273 273 272 268 266 261 245 235 234 236 235 230 223 222 220 216 217 218 217 222 225 225 228 233 238 238 233 231 233 236 241 243 245 249 249 247 245 244 246
290 292 293 293 292 291 290 290 290 290 292 295 299 305 309 313 315 316 317 318 320 323 327 330 333 337 341 344 346 347 347 348 350 349 345 337 326 314 303 298 295 286 278 276 276 274 270 268 269 265 255 246 238 234 234 233 232 228 224 225 222 217 218 220 220 222 224 227 228 227 230 235 236 237 239 242 246 248 249 251 251 249 246 245 247
290 291 292 292 291 290 290 289 289 290 292 296 300 304 308 310 313 314 315 317 319 321 325 329 333 336 339 342 344 345 345 344 345 347 346 342 333 321 308 296 291 286 280 277 277 278 277 274 271 263 249 240 236 233 230 228 229 230 227 228 227 224 226 230 229 228 229 231 230 227 225 228 233 238 241 243 244 246 248 250 251 251 247 246 249
289 290 291 291 291 290 289 289 290 291 293 297 300 303 306 308 311 312 314 315 317 320 323 326 330 334 337 340 341 343 343 342 342 342 343 343 338 329 316 303 294 288 283 280 277 277 276 272 268 262 252 244 238 235 235 234 234 233 229 229 230 229 232 235 234 233 233 232 232 231 230 229 231 236 240 241 243 247 250 253 254 252 248 246 248
289 290 291 291 291 290 289 289 290 291 294 297 300 302 305 307 309 310 312 313 315 318 321 324 328 332 334 336 338 339 340 339 338 337 337 338 337 332 325 314 303 294 286 280 277 277 275 270 265 260 256 251 246 243 244 243 240 238 235 234 234 233 233 236 238 236 235 235 235 235 236 236 236 238 241 243 245 248 252 253 252 248 244 244 246
289 290 291 291 291 290 290 290 291 293 295 297 299 302 304 306 308 309 310 312 313 316 319 322 326 329 331 333 334 335 336 336 335 333 332 331 330 330 329 324 315 303 292 284 279 276 274 273 269 262 258 256 255 252 252 251 248 244 241 238 237 235 235 240 244 240 237 236 236 237 241 243 243 246 249 250 249 249 248 247 245 243 242 244 246
289 290 291 291 291 291 291 292 293 295 297 298 300 301 303 305 306 308 309 310 312 314 317 320 322 325 328 330 331 332 332 332 331 330 329 327 326 326 325 325 323 314 301 290 283 278 274 271 270 268 264 261 260 259 259 259 257 254 250 245 242 240 237 240 243 241 237 236 236 236 240 245 249 252 254 255 255 252 248 244 241 240 242 244 245
288 289 289 290 290 291 292 294 295 297 298 300 301 301 303 304 305 307 309 310 312 314 316 318 319 321 323 326 327 328 329 328 327 326 326 325 323 323 322 321 320 318 309 297 287 281 277 274 274 274 272 268 263 259 257 256 255 253 251 248 246 243 237 234 237 239 238 237 238 240 242 246 251 254 256 257 254 251 249 245 242 243 245 245 245
287 288 288 290 291 293 294 296 297 299 299 300 301 302 303 304 305 307 309 310 312 313 314 315 317 318 320 322 324 325 325 324 323 322 321 321 320 319 318 317 315 314 309 300 291 283 277 277 279 282 281 275 266 257 251 251 251 249 247 245 245 244 238 234 235 239 240 240 242 245 245 246 250 252 254 254 250 247 249 248 245 246 248 246 245
286 288 289 291 293 295 297 298 299 300 301 301 302 303 304 305 306 307 308 310 311 312 313 314 315 316 318 319 321 322 321 321 320 318 316 315 315 314 312 311 310 309 306 301 294 285 277 274 274 279 280 273 264 256 252 251 250 248 247 246 246 244 240 238 239 241 242 241 243 246 247 247 248 248 249 250 248 248 251 251 247 246 247 247 245
286 288 290 292 294 296 298 299 301 302 303 303 304 304 305 305 306 307 308 309 310 311 312 312 313 314 315 316 317 318 317 317 316 314 311 308 308 307 306 305 304 303 302 300 296 291 285 278 273 273 272 267 262 259 256 251 246 244 246 248 247 244 241 242 244 244 241 238 236 236 237 238 239 239 241 243 245 247 248 247 245 242 240 241 244
287 288 290 291 292 294 296 299 300 302 303 303 304 305 305 305 306 307 308 309 310 310 310 311 311 312 313 314 314 314 314 313 312 310 307 304 302 301 300 299 297 296 296 296 295 293 291 287 281 276 273 270 269 269 266 260 255 251 250 249 248 245 243 244 247 245 243 241 239 235 233 232 232 233 235 237 240 242 242 242 243 242 237 237 243
287 288 289 291 292 294 296 297 299 300 301 302 302 303 303 304 305 306 307 308 308 309 309 309 309 310 311 311 311 311 310 310 309 307 304 301 298 296 294 293 292 291 290 289 289 288 287 287 285 282 279 276 274 273 270 267 262 257 252 249 246 241 240 242 246 247 245 246 245 243 241 241 240 239 240 241 242 242 242 243 244 243 242 246 253
288 289 290 291 292 294 295 296 297 298 299 300 300 301 301 302 303 304 306 307 308 308 308 308 308 309 309 309 309 308 307 306 305 304 302 299 295 292 290 289 288 287 286 284 283 282 281 280 279 277 277 275 273 272 270 268 264 257 251 249 247 244 242 243 245 246 245 243 243 240 240 240 239 240 243 246 246 246 245 244 242 241 248 258 263
289 291 292 292 293 294 294 295 296 297 298 299 299 300 301 302 303 304 306 307 308 308 308 308 309 309 309 308 307 306 306 305 303 302 299 296 293 289 286 284 283 282 281 280 280 279 278 277 276 274 272 271 270 269 268 268 268 263 257 253 250 249 249 246 242 241 240 239 240 239 237 235 235 238 242 244 244 244 244 244 244 247 256 262 263
291 292 293 293 293 293 294 294 295 296 297 298 299 300 301 302 304 305 306 307 308 308 308 309 309 309 309 308 307 306 305 304 302 301 299 296 292 288 284 282 280 278 277 275 274 274 273 273 273 272 270 268 266 265 264 264 265 265 263 259 253 250 252 249 242 238 238 240 242 241 241 241 241 242 243 243 243 246 249 252 255 258 261 261 261
293 293 293 293 293 292 293 293 294 296 297 298 299 301 303 304 305 306 307 307 307 308 309 309 308 308 307 307 306 305 304 303 302 300 298 296 293 289 286 283 280 278 276 275 273 271 270 269 269 270 269 268 265 263 262 261 261 262 262 261 256 253 253 251 244 238 237 241 244 244 244 245 247 249 250 249 250 253 256 258 260 260 259 258 258
293 294 295 295 294 294 293 293 294 296 298 300 301 303 304 305 306 306 306 307 307 307 307 306 306 305 305 304 304 304 303 303 302 300 298 295 293 290 287 283 281 279 278 277 275 273 272 270 269 268 268 267 266 264 262 260 259 259 260 260 258 253 251 249 247 242 240 241 243 244 244 245 246 248 251 253 253 253 254 256 255 254 255 256 257
293 295 297 297 296 296 296 296 297 299 301 303 303 304 304 305 305 305 305 305 306 306 305 305 304 304 304 304 304 304 303 303 301 300 298 295 292 290 287 283 280 277 276 276 276 275 274 273 271 269 268 267 267 266 265 263 261 260 259 259 258 255 252 250 249 248 247 247 247 245 244 244 244 246 249 251 251 249 250 251 252 253 256 259 259
293 295 296 296 297 297 298 300 301 302 303 303 303 303 303 304 304 304 305 305 305 305 305 305 305 306 306 306 305 305 304 303 302 301 299 297 294 290 287 284 280 277 274 273 273 273 274 273 272 271 270 269 268 267 266 265 264 263 261 259 259 257 255 253 252 253 253 254 253 250 247 245 245 247 247 246 246 246 248 251 254 257 259 259 258
293 294 295 296 298 299 301 301 302 302 302 302 302 302 303 304 305 305 306 307 307 307 307 308 308 308 308 308 308 308 308 307 307 305 304 302 299 295 290 286 283 279 276 272 271 270 270 270 270 269 269 268 268 267 266 266 265 264 263 262 261 260 258 256 254 253 254 254 254 251 248 245 245 246 246 245 246 248 250 253 255 256 257 257 257
291 292 294 297 299 300 300 299 300 300 300 301 303 304 305 306 307 307 308 308 308 309 310 311 312 313 314 315 316 316 317 317 317 317 316 315 312 308 303 298 293 289 284 280 275 272 270 268 268 268 267 266 266 265 265 265 264 263 262 262 261 261 261 260 257 254 253 252 251 249 249 249 249 250 251 252 252 253 253 253 254 255 258 261 263
290 292 295 297 297 297 297 297 299 300 302 303 305 306 307 307 307 308 309 310 312 314 316 318 320 322 325 326 327 328 329 331 332 333 333 333 331 328 325 321 316 311 305 299 293 287 281 276 272 270 268 266 265 264 263 262 262 262 261 261 260 259 260 260 259 257 254 253 251 249 249 251 253 254 255 254 253 253 253 255 257 259 262 265 266
290 292 293 294 294 295 296 298 300 302 304 305 306 306 307 308 308 310 313 316 319 322 325 327 330 332 333 334 335 336 337 338 338 337 337 337 337 337 336 335 334 331 328 323 317 309 301 293 286 280 276 272 269 267 264 263 261 261 260 260 259 258 258 257 258 257 256 255 254 253 252 253 255 258 258 257 256 256 257 259 261 262 263 263 264
288 289 290 291 293 295 298 300 302 304 305 306 307 307 308 310 313 317 322 325 327 329 330 332 332 333 333 334 335 335 335 335 334 334 334 334 334 335 336 336 337 337 338 337 335 331 325 316 305 295 287 281 277 274 270 268 265 263 262 260 259 259 258 256 255 255 255 255 255 255 255 256 258 260 262 262 261 260 260 261 261 262 263 263 263
286 287 289 291 294 298 301 302 303 304 305 305 306 308 311 317 321 325 327 329 330 330 331 332 332 332 332 332 333 333 333 333 334 334 333 333 333 333 333 334 335 337 338 339 340 342 341 338 330 319 305 293 286 281 278 274 272 269 266 264 262 261 260 259 257 256 255 255 255 255 255 255 255 257 259 261 261 260 260 261 262 263 263 263 263
284 286 289 293 296 299 300 301 300 300 301 302 306 311 317 322 325 326 327 328 329 330 332 333 333 333 333 332 332 333 334 336 337 337 337 336 335 334 333 333 334 336 338 340 343 345 346 347 345 341 331 317 303 294 288 284 280 277 274 271 268 266 264 263 262 260 258 257 256 256 256 255 254 254 255 257 259 259 260 261 261 261 262 261 261
283 286 290 293 295 296 295 294 293 293 297 303 311 316 320 321 322 323 324 325 326 328 330 332 333 334 334 333 333 334 336 338 340 340 340 338 337 336 335 335 335 336 339 342 344 346 348 350 351 350 346 338 326 313 304 298 293 289 284 280 277 273 270 268 267 266 264 262 260 259 258 258 257 256 256 256 258 259 260 261 262 262 261 261 261
283 286 288 288 286 283 280 279 282 288 297 305 310 313 315 316 316 317 319 320 321 323 324 326 329 332 334 335 334 334 337 339 341 342 341 340 338 338 337 337 338 339 341 342 344 346 348 350 352 354 353 349 341 330 321 314 308 303 298 293 288 283 279 275 272 270 269 267 265 263 262 261 261 260 260 260 260 260 260 261 261 261 261 261 261
280 281 278 271 264 260 263 272 285 295 302 305 307 309 310 310 312 313 314 315 316 318 319 321 324 328 332 334 336 337 339 341 342 342 341 341 340 340 341 341 342 341 341 342 344 346 348 349 351 354 356 355 350 342 333 327 322 316 310 304 298 293 288 283 279 276 274 272 270 268 267 265 264 263 262 262 262 262 262 261 259 259 259 259 259
267 259 249 241 242 252 268 282 293 299 302 304 305 306 307 308 309 310 311 312 313 313 315 317 320 324 329 333 336 338 340 341 342 341 341 342 343 344 344 343 342 342 342 343 344 345 347 349 351 353 355 357 356 351 344 338 334 330 324 316 309 302 297 292 288 284 281 279 276 274 272 270 268 266 264 263 262 262 263 262 261 260 259 258 257
238 228 225 229 241 258 272 283 289 294 299 302 303 304 305 306 307 308 308 309 310 310 312 314 316 320 326 332 336 338 339 339 340 341 343 344 345 345 345 343 343 342 343 343 344 345 347 349 350 352 354 356 358 357 352 347 344 342 339 332 323 314 307 302 298 294 290 287 284 281 279 275 272 269 267 266 264 263 262 263 264 265 265 263 261
217 216 223 235 251 265 277 286 292 296 300 302 303 304 304 305 306 307 308 309 309 309 311 312 315 320 326 331 334 335 336 337 339 342 345 346 345 345 345 344 344 344 343 343 344 345 347 348 350 351 353 355 357 358 357 353 350 349 348 345 338 328 319 312 308 304 301 297 293 290 286 283 279 275 271 268 266 264 262 262 262 264 266 267 265
212 220 233 246 261 274 284 291 295 298 300 302 303 304 306 307 308 309 310 310 311 311 312 314 317 322 326 330 333 334 335 337 340 342 344 344 343 343 344 344 344 344 344 344 345 345 346 348 349 350 351 353 355 357 358 357 354 352 351 351 348 342 332 323 317 314 312 309 306 302 297 293 289 284 278 272 267 264 262 260 259 259 260 261 262
219 232 246 260 273 282 289 294 297 299 301 302 303 305 307 308 308 309 310 310 311 312 314 316 320 324 327 329 331 332 334 336 338 340 340 340 340 341 342 342 343 343 343 344 345 345 346 347 348 349 350 351 353 355 358 359 357 354 353 353 352 349 343 335 327 322 320 318 316 313 308 303 297 292 287 280 273 267 263 262 261 258 256 255 256
230 244 258 271 280 286 291 295 298 301 302 303 305 306 307 307 308 308 309 309 310 312 315 318 321 324 326 328 329 331 333 335 336 336 337 337 338 339 339 340 340 341 342 343 344 345 346 347 347 348 349 350 351 353 356 358 358 357 355 353 353 352 348 342 335 330 326 324 321 317 312 307 303 298 292 287 281 275 269 266 265 264 261 257 254
242 256 268 277 285 290 295 298 300 302 304 305 306 307 307 308 309 309 309 309 311 314 317 320 321 322 324 326 329 331 332 333 334 334 335 335 336 337 338 338 338 339 340 341 342 343 345 346 346 346 347 348 350 351 353 355 358 358 356 354 353 353 351 346 340 334 330 327 323 319 314 310 305 301 297 293 288 284 278 273 270 269 267 265 260
253 266 276 284 290 294 297 299 301 302 304 305 306 308 309 309 309 308 309 312 314 315 317 319 320 322 325 327 330 331 332 332 332 333 333 333 334 334 335 336 337 337 338 338 339 341 344 345 345 345 346 347 348 349 350 352 355 358 358 356 354 353 352 349 343 337 332 329 325 320 316 312 307 303 298 296 293 291 287 280 275 271 268 266 263
265 275 283 290 294 297 298 299 301 302 304 305 307 308 308 308 307 308 310 313 314 315 317 321 323 325 327 329 330 331 331 330 331 331 331 331 331 331 332 332 333 334 335 335 337 338 341 343 344 344 345 346 346 347 348 349 352 355 357 357 355 353 352 351 346 339 333 330 327 324 318 312 308 304 299 296 294 293 290 285 279 274 270 266 261
276 282 288 292 294 297 298 300 302 305 306 307 309 309 309 308 308 311 313 314 316 318 321 324 326 326 327 327 327 327 328 328 328 329 329 329 329 329 330 330 331 331 332 332 334 335 338 341 342 343 343 344 344 345 346 347 349 351 354 356 357 355 353 351 349 344 336 330 327 326 323 316 310 304 299 295 293 293 292 289 283 278 273 268 262
280 285 288 291 295 298 301 303 305 307 309 310 312 312 312 311 312 314 316 318 320 322 323 323 323 323 323 323 323 324 325 326 326 327 327 328 329 329 329 329 330 330 330 331 332 333 335 338 341 342 342 342 343 344 345 345 346 348 350 353 355 356 354 352 350 347 342 334 327 324 324 321 314 307 301 296 293 293 294 292 287 280 274 268 263
280 286 291 296 301 304 306 307 308 308 309 310 311 310 311 312 313 314 316 318 319 319 319 318 319 319 320 321 322 323 324 325 326 326 327 328 328 329 329 329 329 330 330 331 331 332 333 335 338 340 341 341 341 342 343 343 344 345 347 349 352 354 355 353 351 349 346 340 332 324 321 320 317 311 304 298 295 293 292 290 286 280 273 267 261
283 293 300 306 309 309 308 308 307 307 306 306 307 307 309 311 312 312 313 314 313 313 314 315 317 318 319 320 321 322 323 325 326 326 327 328 328 328 329 330 331 331 331 331 331 332 332 333 335 337 340 341 341 341 341 342 343 343 344 346 348 351 353 354 353 350 348 345 339 330 322 318 317 314 308 301 295 292 290 286 282 278 272 265 260
288 300 307 311 312 311 310 309 308 307 306 305 305 306 307 307 309 310 310 310 311 312 313 315 317 318 318 319 319 320 322 323 325 326 327 327 328 328 329 330 331 331 332 332 332 332 332 332 333 335 338 339 340 340 340 341 341 342 342 343 344 346 349 352 352 351 349 346 343 338 329 321 316 315 312 306 298 293 290 285 280 275 271 266 261
292 303 310 313 314 314 314 312 310 308 306 306 306 307 307 307 307 308 309 310 312 314 315 316 317 318 318 318 318 320 322 323 324 325 326 327 328 329 329 330 331 332 333 333 333 333 333 332 332 334 336 337 339 339 340 340 341 341 341 341 341 343 344 347 349 351 350 347 345 341 336 328 320 314 312 309 302 295 290 286 281 275 270 265 262
295 303 309 314 317 318 318 317 315 312 309 308 308 308 308 309 309 310 311 314 316 317 317 318 318 318 318 319 320 321 323 324 326 326 326 327 329 330 330 331 331 332 333 334 334 334 334 333 333 333 334 335 336 337 338 339 340 341 340 340 339 340 340 342 344 346 348 347 345 342 339 335 327 319 312 308 304 298 291 286 281 277 272 267 265
Height
5791 5790 5790 5790 5789 5789 5788 5787 5786 5786 5784 5783 5782 5781 5780 5778 5777 5775 5773 5772 5769 5767 5764 5761 5758 5754 5751 5746 5741 5738 5735 5734 5732 5730 5728 5727 5727 5727 5727 5728 5728 5728 5728 5728 5729 5730 5730 5730 5730 5730 5730 5731 5731 5731 5733 5734 5735 5736 5737 5738 5739 5739 5740 5740 5742 5743 5744 5746 5748 5750 5751 5752 5753 5755 5756 5757 5758 5758 5758 5759 5760 5760 5760 5761 5761
5788 5788 5788 5787 5787 5786 5785 5785 5784 5783 5782 5781 5780 5779 5777 5776 5774 5773 5771 5770 5768 5765 5763 5760 5757 5754 5751 5747 5742 5738 5735 5733 5731 5729 5728 5727 5726 5726 5726 5726 5727 5726 5726 5727 5727 5728 5727 5726 5727 5728 5728 5727 5727 5728 5729 5731 5731 5732 5733 5734 5735 5735 5736 5737 5738 5740 5741 5742 5744 5746 5747 5749 5750 5751 5753 5754 5754 5754 5755 5756 5756 5757 5757 5758 5758
5786 5786 5785 5784 5784 5783 5783 5782 5781 5780 5779 5778 5777 5776 5775 5774 5772 5771 5769 5768 5766 5764 5762 5759 5756 5753 5750 5747 5743 5739 5736 5733 5731 5729 5727 5726 5726 5725 5725 5725 5725 5724 5725 5725 5725 5725 5724 5723 5724 5725 5724 5724 5725 5726 5727 5727 5728 5728 5729 5730 5730 5731 5732 5734 5736 5737 5738 5739 5740 5742 5744 5745 5746 5748 5750 5752 5753 5752 5752 5753 5753 5753 5754 5754 5754
5783 5783 5782 5782 5781 5781 5780 5779 5778 5777 5776 5775 5774 5773 5772 5771 5770 5768 5767 5765 5764 5762 5760 5757 5755 5752 5749 5746 5743 5739 5736 5732 5730 5728 5727 5726 5725 5724 5723 5723 5722 5722 5722 5723 5723 5722 5722 5722 5722 5723 5722 5722 5723 5724 5725 5725 5724 5724 5725 5726 5727 5728 5730 5731 5733 5734 5736 5737 5738 5738 5739 5741 5743 5745 5747 5749 5750 5749 5749 5750 5750 5750 5751 5751 5751
5781 5780 5779 5779 5778 5778 5777 5776 5775 5774 5773 5773 5772 5771 5770 5768 5767 5766 5764 5763 5761 5760 5758 5756 5753 5750 5748 5745 5742 5739 5736 5732 5730 5727 5726 5725 5723 5723 5722 5721 5721 5721 5720 5720 5721 5721 5720 5720 5720 5720 5720 5719 5720 5721 5722 5722 5721 5721 5722 5723 5724 5726 5728 5729 5730 5732 5733 5735 5735 5735 5737 5739 5740 5742 5742 5743 5745 5745 5745 5746 5746 5747 5748 5748 5748
5778 5777 5777 5776 5776 5775 5775 5774 5773 5772 5771 5770 5769 5768 5767 5766 5764 5763 5762 5760 5759 5758 5756 5754 5751 5749 5746 5744 5741 5739 5736 5733 5730 5727 5725 5724 5722 5721 5721 5720 5720 5719 5719 5719 5719 5719 5718 5718 5717 5717 5716 5717 5718 5718 5718 5718 5718 5719 5720 5720 5722 5723 5724 5725 5727 5728 5730 5731 5732 5734 5736 5737 5737 5738 5739 5740 5741 5742 5742 5743 5743 5744 5744 5744 5745
5775 5775 5774 5774 5773 5773 5772 5771 5770 5769 5768 5767 5766 5765 5764 5763 5762 5760 5759 5758 5757 5755 5754 5752 5750 5747 5745 5743 5740 5738 5735 5733 5730 5728 5725 5723 5722 5721 5720 5720 5719 5718 5718 5717 5717 5717 5717 5716 5716 5715 5715 5715 5716 5716 5716 5717 5717 5718 5719 5719 5720 5721 5721 5722 5723 5724 5726 5727 5729 5731 5732 5733 5734 5735 5736 5737 5737 5737 5739 5740 5740 5740 5740 5740 5741
5772 5772 5771 5771 5770 5770 5769 5768 5767 5766 5765 5764 5763 5762 5761 5760 5759 5758 5756 5755 5754 5753 5751 5749 5748 5745 5743 5741 5739 5737 5735 5732 5730 5728 5726 5724 5722 5721 5720 5719 5718 5717 5717 5716 5715 5715 5715 5715 5715 5715 5715 5715 5715 5714 5715 5715 5715 5716 5717 5718 5718 5719 5719 5720 5721 5722 5724 5725 5727 5728 5728 5730 5731 5731 5732 5734 5733 5734 5735 5735 5735 5735 5736 5737 5737
5770 5769 5769 5768 5768 5767 5766 5765 5764 5763 5762 5761 5760 5759 5758 5757 5756 5755 5753 5752 5751 5750 5748 5747 5745 5743 5741 5739 5737 5736 5734 5731 5729 5727 5725 5724 5722 5721 5719 5718 5717 5716 5716 5715 5714 5713 5713 5713 5713 5714 5714 5714 5714 5713 5714 5714 5714 5714 5715 5715 5716 5717 5718 5718 5719 5720 5721 5723 5724 5725 5726 5727 5728 5728 5729 5730 5730 5730 5731 5731 5731 5731 5732 5733 5734
5767 5766 5766 5765 5764 5764 5763 5762 5761 5760 5759 5758 5757 5756 5755 5754 5753 5752 5751 5749 5748 5747 5746 5744 5742 5741 5739 5737 5736 5734 5732 5730 5728 5726 5725 5723 5722 5720 5719 5717 5715 5714 5714 5714 5713 5712 5712 5712 5712 5712 5712 5712 5712 5712 5713 5713 5713 5713 5713 5713 5714 5715 5716 5716 5717 5718 5718 5719 5721 5722 5722 5724 5725 5725 5726 5727 5727 5727 5727 5727 5727 5728 5728 5729 5730
5764 5763 5763 5762 5761 5760 5760 5759 5758 5757 5756 5755 5754 5753 5752 5751 5749 5748 5747 5746 5745 5744 5743 5742 5740 5738 5737 5735 5733 5732 5731 5729 5727 5726 5724 5722 5720 5719 5718 5716 5714 5713 5712 5712 5711 5711 5710 5710 5710 5710 5710 5710 5711 5711 5711 5711 5710 5710 5711 5711 5712 5713 5714 5714 5715 5716 5716 5716 5717 5718 5719 5720 5721 5722 5722 5722 5723 5723 5722 5722 5723 5723 5724 5725 5725
5761 5760 5760 5759 5758 5757 5757 5756 5755 5754 5753 5752 5751 5750 5749 5748 5747 5745 5744 5743 5742 5741 5739 5738 5737 5736 5734 5733 5731 5729 5728 5727 5725 5724 5722 5721 5719 5717 5715 5714 5713 5712 5710 5710 5709 5709 5709 5708 5708 5708 5707 5708 5708 5709 5709 5709 5708 5708 5708 5709 5709 5710 5712 5712 5712 5713 5714 5713 5713 5714 5715 5715 5716 5717 5718 5718 5718 5719 5718 5717 5718 5719 5720 5720 5721
5758 5758 5757 5756 5755 5754 5754 5753 5752 5751 5750 5749 5748 5747 5746 5745 5743 5742 5741 5740 5738 5737 5736 5735 5734 5733 5732 5730 5729 5727 5726 5724 5723 5721 5720 5719 5717 5715 5713 5712 5711 5710 5708 5707 5706 5706 5706 5706 5705 5705 5705 5705 5706 5707 5707 5706 5706 5705 5705 5706 5706 5707 5710 5710 5709 5708 5709 5709 5710 5711 5712 5711 5712 5713 5714 5714 5714 5714 5714 5713 5713 5714 5715 5716 5716
5755 5755 5754 5753 5752 5751 5751 5750 5749 5748 5747 5746 5745 5744 5743 5741 5740 5739 5738 5736 5735 5734 5732 5731 5730 5729 5728 5727 5726 5724 5723 5722 5721 5719 5717 5716 5715 5713 5712 5710 5709 5708 5707 5705 5704 5703 5703 5703 5703 5702 5701 5702 5702 5703 5703 5702 5702 5702 5702 5702 5703 5704 5705 5706 5706 5706 5706 5706 5707 5708 5708 5709 5709 5709 5710 5710 5710 5710 5710 5710 5710 5710 5711 5711 5711
5752 5752 5751 5750 5749 5748 5747 5746 5745 5745 5744 5742 5741 5740 5739 5738 5737 5736 5735 5733 5732 5730 5729 5728 5726 5725 5724 5723 5722 5721 5720 5719 5718 5717 5715 5714 5713 5712 5710 5709 5707 5706 5705 5704 5702 5701 5700 5700 5700 5699 5699 5699 5699 5699 5699 5698 5698 5698 5698 5699 5699 5700 5700 5701 5702 5702 5702 5703 5704 5705 5705 5705 5705 5706 5706 5707 5707 5706 5706 5706 5706 5706 5707 5707 5707
5750 5749 5748 5747 5746 5745 5744 5743 5742 5741 5740 5739 5738 5737 5736 5735 5734 5733 5731 5730 5729 5727 5726 5724 5723 5722 5721 5720 5719 5718 5717 5716 5715 5714 5713 5711 5710 5709 5708 5707 5705 5704 5703 5701 5700 5699 5698 5697 5696 5696 5696 5696 5696 5695 5695 5695 5694 5694 5695 5695 5695 5696 5696 5697 5697 5698 5698 5699 5700 5701 5701 5701 5701 5702 5702 5703 5703 5702 5702 5702 5702 5702 5703 5704 5703
5747 5746 5745 5744 5744 5743 5742 5741 5739 5738 5737 5736 5735 5734 5733 5732 5731 5729 5728 5727 5726 5724 5723 5721 5720 5719 5717 5716 5715 5714 5713 5712 5711 5711 5710 5709 5707 5706 5705 5704 5703 5701 5700 5699 5698 5697 5696 5695 5694 5693 5692 5692 5692 5691 5691 5691 5691 5691 5691 5692 5692 5692 5693 5692 5692 5693 5693 5694 5695 5695 5696 5696 5697 5697 5697 5698 5698 5698 5698 5697 5697 5698 5699 5700 5699
5744 5743 5742 5741 5740 5739 5738 5738 5736 5735 5734 5733 5732 5731 5730 5728 5727 5726 5725 5723 5722 5721 5719 5718 5717 5715 5714 5712 5711 5710 5709 5708 5707 5706 5706 5705 5704 5703 5702 5701 5700 5699 5697 5696 5695 5694 5693 5692 5691 5690 5689 5689 5689 5688 5687 5687 5687 5687 5687 5687 5688 5688 5688 5688 5688 5688 5688 5689 5690 5692 5693 5693 5692 5692 5692 5692 5693 5694 5693 5693 5694 5694 5694 5694 5695
5741 5740 5739 5738 5737 5736 5735 5734 5733 5732 5731 5730 5729 5727 5726 5725 5724 5722 5721 5720 5718 5717 5716 5714 5713 5712 5710 5709 5707 5706 5705 5704 5703 5702 5701 5700 5700 5699 5698 5697 5696 5695 5694 5693 5691 5690 5689 5689 5688 5687 5686 5686 5686 5685 5684 5683 5683 5683 5683 5683 5683 5683 5683 5684 5684 5684 5684 5685 5686 5687 5688 5687 5686 5686 5686 5687 5688 5688 5688 5689 5689 5689 5688 5689 5690
5737 5737 5736 5735 5734 5733 5732 5731 5730 5729 5728 5727 5725 5724 5723 5721 5720 5718 5717 5716 5714 5713 5712 5710 5709 5708 5706 5705 5703 5702 5701 5700 5699 5698 5696 5696 5695 5694 5693 5692 5691 5690 5689 5688 5687 5686 5685 5684 5684 5683 5682 5682 5681 5681 5680 5679 5679 5678 5678 5678 5678 5678 5679 5679 5679 5679 5679 5679 5680 5681 5682 5682 5681 5681 5681 5682 5682 5683 5683 5683 5684 5685 5685 5685 5684
5734 5734 5733 5732 5731 5730 5729 5728 5727 5726 5724 5723 5722 5720 5719 5718 5716 5715 5713 5712 5710 5709 5707 5706 5704 5703 5702 5700 5699 5698 5696 5695 5694 5693 5692 5691 5690 5689 5688 5687 5686 5685 5684 5683 5682 5681 5680 5679 5678 5678 5677 5677 5676 5676 5675 5675 5674 5674 5673 5673 5673 5673 5673 5673 5673 5673 5673 5674 5675 5676 5677 5677 5677 5677 5677 5677 5678 5678 5678 5678 5679 5680 5679 5679 5678
5731 5730 5729 5728 5727 5726 5725 5724 5723 5722 5721 5720 5718 5717 5715 5714 5712 5711 5709 5708 5706 5705 5703 5702 5700 5698 5697 5696 5694 5693 5691 5690 5689 5688 5687 5686 5685 5684 5683 5682 5680 5679 5678 5677 5677 5676 5675 5674 5673 5672 5672 5671 5671 5670 5670 5669 5669 5668 5668 5667 5667 5668 5668 5668 5668 5667 5668 5668 5669 5670 5671 5671 5671 5672 5672 5672 5672 5673 5673 5672 5673 5673 5672 5672 5671
5728 5727 5726 5725 5723 5722 5721 5721 5720 5719 5717 5716 5715 5713 5712 5710 5709 5707 5706 5704 5702 5701 5699 5698 5696 5695 5693 5691 5690 5688 5687 5685 5684 5683 5681 5680 5679 5678 5677 5676 5675 5674 5673 5672 5671 5670 5669 5669 5668 5667 5666 5665 5665 5664 5664 5664 5663 5663 5662 5662 5662 5662 5662 5662 5662 5662 5662 5662 5663 5664 5664 5665 5665 5665 5666 5666 5667 5667 5666 5666 5667 5667 5666 5665 5665
5724 5723 5722 5721 5720 5719 5718 5717 5716 5715 5714 5713 5711 5710 5708 5707 5705 5704 5702 5700 5699 5697 5696 5694 5692 5691 5689 5687 5686 5684 5682 5681 5679 5677 5676 5675 5674 5673 5672 5671 5670 5668 5667 5666 5665 5664 5663 5662 5661 5661 5660 5659 5658 5658 5657 5657 5657 5657 5656 5656 5655 5655 5655 5655 5655 5655 5656 5656 5656 5657 5658 5658 5658 5659 5659 5659 5660 5659 5659 5659 5660 5660 5659 5659 5659
5721 5720 5719 5718 5717 5716 5715 5714 5713 5712 5710 5709 5708 5706 5705 5703 5701 5700 5698 5696 5695 5693 5692 5690 5688 5686 5685 5683 5681 5680 5678 5676 5675 5673 5671 5670 5669 5667 5666 5665 5664 5663 5662 5661 5659 5658 5657 5656 5655 5654 5653 5653 5652 5651 5650 5650 5650 5650 5649 5649 5649 5649 5649 5648 5648 5648 5648 5649 5649 5650 5650 5650 5651 5651 5651 5652 5652 5652 5652 5652 5652 5652 5652 5652 5653
5717 5716 5715 5714 5713 5712 5711 5710 5709 5708 5707 5706 5704 5703 5701 5699 5697 5696 5694 5693 5691 5689 5688 5686 5684 5682 5680 5679 5677 5675 5674 5672 5670 5669 5667 5666 5664 5663 5661 5660 5658 5657 5656 5654 5653 5652 5650 5649 5648 5647 5647 5646 5645 5644 5643 5643 5642 5642 5642 5642 5642 5642 5642 5641 5641 5641 5641 5641 5642 5643 5643 5643 5643 5644 5644 5644 5644 5644 5644 5645 5645 5645 5645 5645 5646
5714 5713 5712 5711 5710 5709 5708 5707 5706 5705 5703 5702 5700 5699 5697 5695 5694 5692 5691 5689 5688 5686 5684 5682 5681 5679 5677 5675 5674 5672 5670 5669 5667 5665 5663 5662 5660 5658 5657 5655 5653 5652 5650 5649 5647 5646 5644 5643 5642 5641 5640 5639 5638 5637 5636 5635 5635 5634 5634 5634 5634 5634 5634 5634 5634 5634 5634 5634 5634 5635 5635 5635 5635 5636 5637 5637 5636 5636 5636 5637 5637 5637 5637 5638 5639
5711 5709 5708 5708 5707 5706 5704 5703 5702 5701 5699 5698 5697 5695 5694 5692 5691 5689 5688 5686 5685 5683 5681 5680 5678 5677 5675 5673 5672 5670 5668 5666 5664 5663 5661 5659 5657 5655 5654 5652 5650 5648 5646 5644 5642 5640 5638 5637 5635 5634 5633 5631 5630 5629 5628 5627 5627 5626 5626 5626 5626 5626 5626 5626 5626 5626 5626 5626 5626 5626 5627 5627 5627 5628 5628 5629 5628 5627 5628 5628 5629 5628 5629 5630 5631
5707 5706 5705 5704 5703 5702 5701 5700 5698 5697 5696 5695 5694 5693 5691 5690 5688 5687 5685 5684 5683 5681 5680 5678 5677 5675 5674 5672 5670 5668 5666 5665 5663 5661 5659 5658 5656 5654 5652 5650 5648 5646 5643 5641 5639 5636 5634 5632 5630 5627 5625 5623 5622 5621 5620 5619 5619 5618 5617 5617 5617 5617 5617 5617 5617 5617 5618 5618 5618 5618 5619 5619 5619 5619 5620 5620 5619 5619 5620 5620 5620 5620 5621 5622 5622
5704 5703 5702 5701 5700 5699 5698 5697 5696 5694 5694 5693 5691 5690 5689 5688 5686 5685 5684 5683 5681 5680 5679 5677 5676 5674 5673 5671 5669 5667 5665 5664 5662 5660 5658 5656 5654 5652 5650 5648 5646 5643 5641 5638 5636 5633 5630 5627 5625 5622 5619 5617 5615 5613 5612 5611 5610 5609 5609 5609 5608 5608 5608 5608 5608 5608 5609 5609 5609 5610 5610 5611 5611 5611 5612 5611 5611 5612 5612 5612 5612 5612 5612 5613 5614
5701 5700 5699 5698 5697 5696 5695 5694 5693 5692 5691 5691 5690 5688 5687 5686 5685 5684 5683 5682 5680 5679 5678 5676 5675 5673 5671 5670 5668 5666 5664 5662 5660 5658 5656 5654 5652 5650 5648 5646 5644 5641 5639 5636 5633 5630 5627 5624 5621 5618 5614 5611 5608 5606 5604 5603 5602 5601 5600 5599 5599 5599 5598 5598 5598 5599 5599 5600 5600 5601 5602 5602 5603 5603 5603 5603 5603 5604 5605 5604 5604 5604 5604 5604 5605
5697 5697 5696 5695 5694 5694 5693 5692 5691 5690 5690 5689 5688 5687 5686 5685 5684 5683 5682 5681 5679 5678 5676 5675 5673 5672 5670 5668 5667 5665 5663 5660 5658 5656 5654 5652 5649 5647 5645 5643 5641 5639 5636 5633 5630 5627 5624 5621 5617 5614 5610 5607 5603 5600 5598 5596 5594 5593 5592 5591 5590 5589 5589 5589 5589 5590 5590 5590 5590 5591 5593 5593 5593 5594 5594 5595 5595 5596 5597 5596 5596 5596 5595 5595 5596
5694 5694 5693 5692 5692 5691 5691 5690 5690 5689 5688 5688 5687 5686 5685 5684 5683 5682 5680 5679 5678 5677 5675 5673 5672 5670 5668 5667 5665 5663 5661 5659 5657 5655 5652 5650 5647 5645 5642 5640 5638 5636 5633 5630 5627 5624 5621 5618 5614 5610 5607 5603 5599 5596 5593 5591 5588 5586 5585 5584 5582 5581 5581 5580 5580 5580 5580 5580 5581 5582 5583 5584 5584 5584 5585 5586 5586 5588 5589 5589 5588 5587 5587 5586 5587
5692 5691 5691 5690 5690 5690 5689 5689 5688 5688 5687 5687 5686 5685 5684 5683 5682 5680 5679 5678 5676 5675 5673 5672 5670 5668 5667 5665 5663 5661 5659 5657 5655 5653 5651 5648 5645 5643 5640 5638 5635 5632 5630 5627 5625 5622 5619 5615 5612 5608 5604 5600 5596 5593 5590 5587 5584 5581 5579 5577 5576 5574 5573 5573 5572 5571 5571 5571 5572 5573 5574 5574 5575 5576 5577 5577 5578 5579 5580 5580 5580 5579 5579 5579 5579
5689 5689 5689 5688 5688 5688 5688 5688 5687 5686 5685 5685 5684 5683 5682 5681 5680 5679 5677 5676 5674 5673 5671 5670 5668 5667 5665 5663 5661 5659 5657 5655 5652 5650 5648 5646 5643 5641 5638 5635 5632 5630 5627 5625 5622 5619 5616 5613 5609 5606 5602 5598 5594 5590 5587 5584 5581 5578 5575 5572 5570 5568 5567 5566 5565 5565 5564 5564 5564 5565 5565 5565 5567 5568 5569 5569 5570 5570 5571 5572 5572 5572 5571 5571 5571
5687 5687 5687 5687 5687 5687 5686 5686 5686 5685 5684 5683 5682 5682 5681 5679 5678 5676 5675 5673 5672 5670 5669 5667 5666 5665 5663 5661 5659 5657 5655 5653 5651 5648 5646 5644 5641 5639 5636 5633 5631 5628 5625 5622 5619 5616 5613 5610 5607 5604 5600 5596 5592 5588 5585 5582 5579 5575 5572 5569 5566 5564 5562 5560 5560 5559 5558 5558 5558 5558 5558 5558 5558 5559 5560 5561 5562 5563 5564 5565 5565 5565 5565 5564 5564
5685 5685 5685 5685 5685 5685 5685 5685 5684 5684 5683 5681 5680 5680 5679 5677 5676 5674 5673 5671 5670 5668 5666 5665 5664 5662 5661 5659 5657 5655 5653 5651 5649 5647 5644 5642 5639 5637 5634 5632 5629 5626 5623 5620 5617 5614 5611 5608 5605 5602 5598 5594 5590 5586 5582 5579 5576 5573 5570 5566 5563 5560 5558 5556 5555 5554 5553 5552 5552 5552 5552 5551 5551 5552 5552 5554 5555 5556 5557 5557 5558 5558 5558 5558 5558
5684 5684 5684 5684 5684 5684 5683 5683 5682 5682 5681 5680 5678 5677 5676 5675 5673 5672 5670 5669 5667 5666 5664 5663 5662 5660 5659 5657 5655 5653 5651 5649 5647 5645 5642 5640 5637 5635 5633 5630 5627 5624 5621 5618 5615 5612 5609 5606 5603 5600 5596 5593 5589 5585 5581 5577 5574 5571 5568 5564 5561 5558 5555 5553 5551 5550 5549 5548 5548 5547 5547 5546 5546 5546 5547 5547 5548 5548 5549 5550 5551 5552 5552 5553 5552
5682 5682 5682 5682 5682 5682 5682 5681 5680 5680 5679 5677 5676 5674 5673 5672 5671 5669 5667 5666 5665 5663 5662 5660 5659 5658 5656 5655 5653 5651 5649 5647 5645 5642 5640 5638 5635 5633 5631 5628 5625 5622 5620 5617 5614 5611 5608 5604 5601 5598 5595 5591 5588 5584 5580 5576 5572 5569 5566 5562 5559 5556 5553 5550 5549 5547 5546 5545 5544 5543 5543 5542 5542 5541 5542 5542 5542 5543 5543 5543 5544 5545 5546 5546 5546
5680 5681 5681 5681 5680 5680 5680 5679 5678 5677 5676 5675 5674 5672 5670 5669 5668 5666 5665 5663 5662 5661 5659 5658 5657 5655 5654 5652 5651 5649 5647 5645 5643 5641 5638 5636 5634 5631 5629 5626 5624 5621 5618 5615 5612 5609 5606 5603 5600 5597 5593 5590 5586 5583 5579 5575 5571 5568 5564 5561 5558 5555 5552 5549 5547 5545 5544 5543 5542 5541 5540 5539 5539 5538 5538 5537 5537 5537 5538 5538 5539 5539 5540 5540 5540
5679 5679 5679 5679 5679 5678 5678 5677 5675 5674 5673 5672 5671 5670 5668 5667 5665 5664 5662 5661 5660 5658 5657 5656 5655 5653 5652 5650 5648 5647 5645 5643 5641 5639 5636 5634 5632 5630 5627 5625 5622 5619 5616 5613 5610 5607 5604 5601 5598 5595 5592 5589 5585 5582 5578 5575 5571 5567 5564 5560 5557 5554 5551 5548 5546 5544 5542 5541 5540 5539 5538 5537 5536 5535 5535 5534 5534 5534 5534 5535 5535 5535 5535 5535 5535
5678 5677 5677 5677 5677 5676 5675 5674 5673 5672 5671 5669 5668 5667 5666 5664 5663 5661 5660 5659 5657 5656 5655 5654 5653 5651 5650 5648 5647 5645 5643 5641 5639 5637 5634 5632 5630 5628 5625 5623 5620 5617 5614 5612 5609 5606 5603 5600 5597 5594 5591 5587 5584 5581 5577 5574 5570 5567 5563 5559 5556 5553 5550 5548 5545 5543 5541 5540 5539 5537 5536 5535 5534 5533 5533 5532 5532 5531 5531 5531 5531 5531 5531 5532 5532
5676 5676 5675 5675 5674 5674 5673 5672 5671 5669 5668 5667 5666 5664 5663 5662 5660 5659 5658 5657 5655 5654 5653 5652 5651 5649 5648 5646 5644 5643 5641 5639 5637 5634 5632 5630 5627 5625 5623 5621 5618 5615 5612 5610 5607 5604 5602 5599 5596 5593 5589 5586 5583 5580 5577 5573 5570 5566 5563 5559 5556 5553 5550 5547 5544 5542 5540 5539 5537 5536 5535 5534 5533 5532 5531 5530 5530 5529 5529 5529 5528 5528 5528 5529 5529
5674 5674 5673 5673 5672 5671 5670 5669 5668 5667 5666 5665 5663 5662 5661 5660 5659 5657 5656 5655 5654 5652 5651 5650 5649 5647 5645 5644 5642 5640 5638 5636 5634 5632 5630 5628 5625 5623 5620 5618 5616 5613 5610 5608 5605 5602 5600 5597 5594 5591 5588 5585 5582 5579 5576 5573 5569 5566 5563 5559 5556 5552 5549 5546 5544 5541 5539 5538 5536 5535 5533 5532 5531 5530 5529 5528 5528 5527 5527 5526 5526 5526 5526 5526 5527
5672 5672 5671 5671 5670 5669 5668 5667 5666 5664 5663 5662 5661 5660 5659 5658 5657 5655 5654 5653 5652 5650 5649 5648 5646 5645 5644 5642 5640 5639 5637 5635 5633 5630 5628 5626 5623 5620 5618 5615 5613 5611 5608 5605 5603 5600 5598 5595 5592 5589 5586 5583 5580 5578 5575 5572 5569 5565 5562 5559 5555 5552 5549 5546 5543 5541 5539 5537 5535 5533 5532 5530 5529 5528 5527 5527 5526 5525 5525 5524 5524 5524 5524 5524 5525
5670 5669 5669 5668 5668 5667 5666 5665 5663 5662 5661 5659 5658 5657 5656 5655 5654 5653 5652 5651 5650 5648 5647 5646 5645 5643 5642 5641 5639 5637 5635 5633 5631 5628 5626 5623 5621 5618 5615 5613 5610 5608 5605 5603 5600 5598 5595 5593 5590 5588 5585 5582 5579 5576 5573 5570 5567 5565 5562 5558 5555 5552 5549 5546 5543 5540 5538 5536 5534 5532 5531 5529 5528 5527 5526 5525 5524 5523 5523 5522 5522 5522 5522 5522 5522
5668 5667 5667 5666 5665 5664 5663 5662 5661 5660 5658 5657 5656 5655 5654 5653 5652 5651 5650 5649 5648 5647 5646 5644 5643 5642 5640 5638 5637 5635 5633 5631 5629 5626 5623 5621 5618 5616 5613 5610 5608 5605 5603 5600 5597 5595 5592 5590 5588 5586 5583 5580 5577 5574 5571 5569 5566 5563 5560 5558 5555 5552 5548 5545 5542 5540 5537 5535 5533 5531 5530 5528 5527 5525 5524 5523 5522 5522 5521 5521 5520 5520 5520 5520 5520
5666 5665 5664 5664 5663 5662 5661 5660 5659 5658 5657 5656 5655 5654 5653 5651 5650 5649 5648 5647 5646 5645 5644 5642 5641 5640 5638 5636 5634 5632 5630 5628 5625 5623 5621 5618 5615 5613 5610 5608 5605 5602 5600 5597 5595 5592 5589 5587 5585 5583 5581 5579 5576 5573 5570 5567 5564 5562 5559 5556 5554 5551 5548 5545 5542 5539 5536 5534 5532 5530 5529 5527 5526 5524 5523 5522 5521 5520 5519 5519 5518 5518 5518 5518 5518
5664 5664 5663 5662 5661 5660 5659 5658 5656 5655 5655 5654 5653 5652 5651 5650 5649 5647 5646 5645 5644 5643 5641 5640 5638 5637 5635 5634 5632 5629 5627 5625 5623 5620 5618 5615 5613 5610 5608 5605 5603 5600 5597 5595 5592 5590 5587 5584 5582 5580 5578 5576 5574 5571 5568 5565 5562 5560 5557 5555 5552 5550 5547 5544 5541 5538 5536 5533 5531 5529 5527 5525 5524 5523 5522 5520 5519 5518 5517 5517 5516 5516 5516 5516 5516
5662 5662 5661 5660 5659 5658 5657 5656 5655 5654 5652 5651 5650 5649 5648 5647 5646 5645 5644 5643 5641 5640 5638 5637 5635 5634 5632 5630 5628 5626 5624 5622 5620 5617 5615 5613 5610 5608 5605 5603 5600 5598 5595 5592 5590 5587 5585 5582 5579 5577 5575 5573 5571 5569 5566 5563 5561 5558 5555 5553 5550 5548 5545 5543 5540 5538 5535 5532 5530 5528 5525 5524 5522 5521 5520 5519 5517 5516 5516 5515 5514 5514 5514 5514 5514
5660 5660 5659 5658 5657 5656 5655 5654 5653 5652 5651 5649 5648 5647 5646 5645 5644 5643 5642 5640 5639 5637 5636 5634 5632 5631 5629 5627 5625 5623 5621 5619 5617 5614 5612 5610 5607 5605 5603 5600 5598 5595 5593 5590 5588 5585 5582 5580 5577 5575 5572 5570 5568 5566 5564 5561 5559 5556 5553 5551 5548 5546 5543 5541 5539 5536 5534 5531 5529 5527 5524 5522 5521 5519 5518 5517 5516 5515 5514 5513 5512 5512 5512 5512 5512